Retour au catalogue

FENGYUN 1C DEB

ActifSSO
NORAD 32210·DEBRIS·🇨🇳 China

Lancé May 10, 1999 depuis Taiyuan Satellite Launch Center

Loading…

Prochains Passages (prochaines 24 heures)

TLE

VieillissantSource: Space-Track

Époque: Sep 8, 2026, 22:38 UTC

1 32210U 99025CVG 26251.94314257  .00001211  00000-0  66544-3 0  9997
2 32210  98.8485 302.2426 0071895 126.1174 234.6681 14.12265717651999

Suivez FENGYUN 1C DEB en temps réel avec AllMySat

Download on the App Store